Flag for USA

Past Weather in South Washington Street Historic District, Georgia, USA — Yesterday and Last 2 Weeks

Now
80 °F

Sunny.


Feels Like: 81 °F
Forecast: 87 / 61 °F
Wind: 5 mph from East

Location: Clemson-Oconee County Airport

Current Time: May 21, 2019 at 11:21:28 am

Latest Report: May 21, 2019 at 10:54 am


Visibility: 10 mi

Pressure: 29.99 "Hg

Humidity: 49%

Dew Point: 59 °F

Location of South Washington Street Historic DistrictLocation

Past Weather in South Washington Street Historic District — Graph

°F

South Washington Street Historic District Temperature Yesterday

Maximum temperature yesterday: 84 °F (at 1:54 pm)
Minimum temperature yesterday: 66 °F (at 6:54 am)
Average temperature yesterday: 75 °F

High & Low Weather Summary for the Past Weeks

 TemperatureHumidityPressure
High88 °F (May 18, 3:54 pm)100% (May 10, 5:54 am)30.21 "Hg (May 10, 5:54 am)
Low49 °F (May 14, 5:54 am)35% (May 13, 3:54 pm)29.70 "Hg (May 12, 6:54 pm)
Average70 °F74%29.99 "Hg
* Reported May 6 9:54 am — May 21 9:54 am, South Washington Street Historic District. Weather by CustomWeather, © 2019

Note: Actual official high and low records may vary slightly from our data, if they occured in-between our weather recording intervals... More about our weather records

Advertising

South Washington Street Historic District Weather History for the Previous 24 Hours

Scroll right to see more
 ConditionsComfort  
Time TempWeatherWind HumidityBarometerVisibility
9:54 am
Tue, May 21
77 °FSunny.3 mph54%30.00 "Hg10 mi
8:54 am70 °FSunny.5 mph76%30.00 "Hg10 mi
7:54 am67 °FSunny.No wind79%29.98 "Hg10 mi
6:54 am61 °FSunny.3 mph93%29.97 "Hg10 mi
5:54 am63 °FClear.No wind97%29.95 "Hg10 mi
4:54 am62 °FClear.No wind90%29.94 "Hg10 mi
3:54 am64 °FClear.No wind84%29.93 "Hg10 mi
2:54 am67 °FClear.No wind79%29.93 "Hg10 mi
1:54 am67 °FClear.No wind81%29.93 "Hg10 mi
12:54 am68 °FClear.3 mph68%29.94 "Hg10 mi
11:54 pm
Mon, May 20
73 °FClear.3 mph53%29.94 "Hg10 mi
10:54 pm74 °FClear.5 mph53%29.94 "Hg10 mi
9:54 pm73 °FClear.8 mph64%29.94 "Hg10 mi
8:54 pm76 °FClear.7 mph58%29.93 "Hg10 mi
7:54 pm80 °FPassing clouds.6 mph51%29.92 "Hg10 mi
6:54 pm83 °FSunny.6 mph50%29.91 "Hg10 mi
5:54 pm83 °FSunny.5 mph53%29.92 "Hg10 mi
4:54 pm83 °FSunny.6 mph61%29.92 "Hg10 mi
3:54 pm77 °FPartly sunny.3 mph79%29.94 "Hg10 mi
3:25 pm77 °FRain. Mostly cloudy.5 mph62%29.99 "Hg2 mi
2:54 pm84 °FPartly sunny.N/A51%29.96 "Hg10 mi
1:54 pm84 °FSunny.7 mph51%29.99 "Hg10 mi
12:54 pm82 °FSunny.6 mph55%30.00 "Hg10 mi
11:54 am79 °FSunny.6 mph65%30.02 "Hg10 mi
Weather by CustomWeather, © 2019

See weather overview